Spokane Fairchild, WA
on Thursday, December 27, 2012

Thursday
Previous Day Next Day
Daily Summary
 ActualAverage (KGEG)Record (KGEG)
Temperature
Mean Temperature °F 27°F  
Max Temperature 30°F 32°F 55°F (1980)
Min Temperature 26°F 22°F -4°F (1983)
Degree Days
Heating Degree Days 37 38  
Month to date heating degree days 1015  
Since 1 July heating degree days 2682  
Cooling Degree Days 0 0  
Month to date cooling degree days 0  
Year to date cooling degree days 450  
Moisture
Dew Point 28°F   
Average Humidity 100    
Maximum Humidity 100    
Minimum Humidity 100    
Precipitation
Precipitation 0.01 in 0.07 in 0.78 in (1889)
Month to date precipitation 2.04  
Year to date precipitation 16.30  
Snow
Snow 0.00 in 0.50 in 5.90 in (1973)
Month to date snowfall 12.5  
Since 1 July snowfall 20.0  
Snow Depth 7.00 in   
Wind
Wind Speed 4 mph   
Max Wind Speed 8 mph   
Max Gust Speed mph   
Visibility 7 miles   
Events Rain , Snow   

Key: T is trace of precipitation, MM is missing value
Source: NWS Daily Summary
Time(PST)TemperatureDew PointHumidity Pressure Visibility Wind DirectionWind SpeedGust SpeedPrecipitationEvents Conditions
12:03 AM 26.6°F 26.6°F 100% 29.89 in 7.0 miles SSE 1.2 mph - N/A Snow Light Snow
12:43 AM 28.4°F 28.4°F 100% 29.89 in 10.0 miles SW 3.5 mph - N/A Snow Light Snow
12:58 AM 27.7°F 27.7°F 100% 29.97 in 10.0 miles SW 3.5 mph - 0.00 in Snow Light Snow
1:01 AM 26.6°F 26.6°F 100% 29.90 in 9.0 miles SSW 3.5 mph - N/A   Overcast
1:17 AM 26.6°F 26.6°F 100% 29.90 in 5.0 miles SW 3.5 mph - N/A   Overcast
1:42 AM 26.6°F 26.6°F 100% 29.91 in 10.0 miles SW 3.5 mph - N/A   Overcast
1:47 AM 26.6°F 26.6°F 100% 29.91 in 10.0 miles WSW 3.5 mph - N/A   Overcast
1:58 AM 26.6°F 26.6°F 100% 30.01 in 10.0 miles SSW 3.5 mph - 0.00 in   Overcast
2:03 AM 26.6°F 26.6°F 100% 29.92 in 10.0 miles SSW 3.5 mph - N/A   Overcast
2:04 AM 26.6°F 26.6°F 100% 29.92 in 10.0 miles SSW 3.5 mph - N/A   Overcast
2:05 AM 26.6°F 26.6°F 100% 29.92 in 10.0 miles SSW 3.5 mph - N/A   Overcast
2:26 AM 26.6°F 26.6°F 100% 29.92 in 10.0 miles WSW 2.3 mph - N/A   Overcast
2:35 AM 26.6°F 26.6°F 100% 29.92 in 9.0 miles West 2.3 mph - N/A   Overcast
2:41 AM 26.6°F 26.6°F 100% 29.92 in 6.0 miles West 2.3 mph - N/A   Overcast
2:46 AM 28.4°F 28.4°F 100% 29.92 in 3.0 miles WNW 3.5 mph - N/A   Overcast
2:51 AM 28.4°F 28.4°F 100% 29.92 in 2.5 miles South 4.6 mph - N/A   Overcast
2:53 AM 28.4°F 28.4°F 100% 29.92 in 2.5 miles SSW 5.8 mph - N/A   Overcast
2:58 AM 27.9°F 27.9°F 100% 30.00 in 2.0 miles SSW 4.6 mph - 0.00 in   Overcast
3:03 AM 28.4°F 28.4°F 100% 29.93 in 1.2 miles SSW 4.6 mph - N/A   Overcast
3:08 AM 28.4°F 28.4°F 100% 29.93 in 1.2 miles South 3.5 mph - N/A   Overcast
3:13 AM 28.4°F 28.4°F 100% 29.92 in 1.2 miles SSW 2.3 mph - N/A   Overcast
3:15 AM 28.4°F 28.4°F 100% 29.93 in 1.2 miles SSW 2.3 mph - N/A   Overcast
3:20 AM 28.4°F 28.4°F 100% 29.93 in 1.5 miles SW 3.5 mph - N/A   Overcast
3:26 AM 28.4°F 28.4°F 100% 29.92 in 1.5 miles SW 3.5 mph - N/A   Overcast
3:36 AM 28.4°F 28.4°F 100% 29.92 in 1.8 miles South 3.5 mph - N/A Snow Light Snow
3:41 AM 28.4°F 28.4°F 100% 29.92 in 3.0 miles South 3.5 mph - N/A Snow Light Snow
3:51 AM 28.4°F 28.4°F 100% 29.93 in 7.0 miles South 3.5 mph - N/A Snow Light Snow
3:58 AM 28.4°F 28.4°F 100% 30.01 in 8.0 miles South 3.5 mph - 0.00 in Snow Light Snow
4:08 AM 28.4°F 28.4°F 100% 29.93 in 9.0 miles SSW 3.5 mph - N/A Snow Light Snow
4:13 AM 28.4°F 28.4°F 100% 29.93 in 9.0 miles SSW 4.6 mph - N/A Snow Light Snow
4:18 AM 28.4°F 28.4°F 100% 29.93 in 8.0 miles SSW 4.6 mph - N/A Snow Light Snow
4:23 AM 28.4°F 28.4°F 100% 29.93 in 8.0 miles South 4.6 mph - N/A Snow Light Snow
4:58 AM 28.4°F 28.4°F 100% 30.01 in 10.0 miles South 3.5 mph - 0.01 in Snow Light Snow
5:08 AM 28.4°F 28.4°F 100% 29.93 in 10.0 miles South 4.6 mph - N/A Snow Light Snow
5:11 AM 28.4°F 28.4°F 100% 29.93 in 10.0 miles South 5.8 mph - N/A   Overcast
5:26 AM 28.4°F 28.4°F 100% 29.94 in 10.0 miles SSW 4.6 mph - N/A Snow Light Snow
5:37 AM 28.4°F 28.4°F 100% 29.94 in 10.0 miles South 4.6 mph - N/A   Overcast
5:58 AM 27.9°F 27.9°F 100% 30.04 in 10.0 miles South 5.8 mph - 0.00 in   Overcast
6:18 AM 28.4°F 28.4°F 100% 29.95 in 10.0 miles South 5.8 mph - N/A   Overcast
6:40 AM 28.4°F 28.4°F 100% 29.96 in 10.0 miles SSW 3.5 mph - N/A   Overcast
6:58 AM 27.9°F 27.9°F 100% 30.05 in 10.0 miles SSW 3.5 mph - 0.00 in   Overcast
7:03 AM 28.4°F 28.4°F 100% 29.96 in 9.0 miles SSW 3.5 mph - N/A   Overcast
7:05 AM 28.4°F 28.4°F 100% 29.96 in 9.0 miles SW 3.5 mph - N/A   Overcast
7:26 AM 28.4°F 28.4°F 100% 29.96 in 9.0 miles SSW 3.5 mph - N/A   Overcast
7:40 AM 28.4°F 28.4°F 100% 29.97 in 8.0 miles SW 3.5 mph - N/A   Overcast
7:41 AM 28.4°F 28.4°F 100% 29.97 in 8.0 miles SW 3.5 mph - N/A   Overcast
7:58 AM 27.7°F 27.7°F 100% 30.06 in 6.0 miles WSW 3.5 mph - 0.00 in Snow Light Snow
8:03 AM 28.4°F 28.4°F 100% 29.98 in 6.0 miles WSW 2.3 mph - N/A   Overcast
8:05 AM 28.4°F 28.4°F 100% 29.98 in 7.0 miles WSW 2.3 mph - N/A   Overcast
8:25 AM 28.4°F 28.4°F 100% 29.98 in 2.5 miles WSW 2.3 mph - N/A Snow Light Snow
8:45 AM 28.4°F 28.4°F 100% 29.99 in 2.0 miles WSW 2.3 mph - N/A Snow Light Snow
8:56 AM 28.4°F 28.4°F 100% 29.99 in 4.0 miles West 2.3 mph - N/A Snow Light Snow
8:59 AM 27.7°F 27.7°F 100% 30.08 in 4.0 miles West 2.3 mph - 0.00 in Snow Light Snow
9:41 AM 28.4°F 28.4°F 100% 30.00 in 6.0 miles WSW 2.3 mph - N/A   Overcast
9:58 AM 27.7°F 27.7°F 100% 30.09 in 8.0 miles WSW 3.5 mph - 0.00 in   Overcast
10:58 AM 28.4°F 28.4°F 100% 30.10 in 10.0 miles WSW 2.3 mph - N/A   Overcast
11:04 AM 28.4°F 28.4°F 100% 30.01 in 10.0 miles WSW 3.5 mph - N/A   Overcast
11:20 AM 28.4°F 28.4°F 100% 30.01 in 10.0 miles West 4.6 mph - N/A   Overcast
11:22 AM 28.4°F 28.4°F 100% 30.01 in 10.0 miles WSW 4.6 mph - N/A   Overcast
11:58 AM 28.8°F 28.8°F 100% 30.10 in 10.0 miles SW 4.6 mph - 0.00 in Snow Light Snow
12:05 PM 28.4°F 28.4°F 100% 30.00 in 10.0 miles WSW 3.5 mph - N/A   Overcast
12:23 PM 30.2°F 30.2°F 100% 30.01 in 10.0 miles West 5.8 mph - N/A   Overcast
12:43 PM 30.2°F 30.2°F 100% 30.01 in 10.0 miles WSW 5.8 mph - N/A   Overcast
12:48 PM 30.2°F 30.2°F 100% 30.01 in 10.0 miles WSW 5.8 mph - N/A   Overcast
12:53 PM 30.2°F 30.2°F 100% 30.01 in 10.0 miles West 4.6 mph - N/A   Overcast
12:58 PM 29.7°F 29.7°F 100% 30.09 in 10.0 miles WNW 4.6 mph - 0.00 in   Overcast
12:59 PM 30.2°F 30.2°F 100% 30.01 in 10.0 miles West 4.6 mph - N/A   Overcast
1:30 PM 28.4°F 28.4°F 100% 30.01 in 10.0 miles West 5.8 mph - N/A   Overcast
1:45 PM 28.4°F 28.4°F 100% 30.02 in 10.0 miles West 5.8 mph - N/A   Overcast
1:58 PM 28.4°F 28.4°F 100% 30.10 in 10.0 miles West 4.6 mph - 0.00 in   Overcast
2:18 PM 28.4°F 28.4°F 100% 30.02 in 10.0 miles WSW 4.6 mph - N/A   Overcast
2:23 PM 28.4°F 28.4°F 100% 30.02 in 10.0 miles WSW 4.6 mph - N/A   Overcast
2:43 PM 28.4°F 28.4°F 100% 30.02 in 10.0 miles WSW 5.8 mph - N/A   Overcast
2:58 PM 27.9°F 27.9°F 100% 30.12 in 10.0 miles WSW 4.6 mph - N/A   Overcast
3:38 PM 28.4°F 28.4°F 100% 30.03 in 10.0 miles SW 3.5 mph - N/A   Overcast
3:40 PM 28.4°F 28.4°F 100% 30.03 in 10.0 miles SW 3.5 mph - N/A   Overcast
3:45 PM 26.6°F 26.6°F 100% 30.03 in 10.0 miles SW 3.5 mph - N/A   Overcast
3:49 PM 26.6°F 26.6°F 100% 30.03 in 10.0 miles SW 2.3 mph - N/A   Overcast
3:58 PM 27.3°F 27.3°F 100% 30.12 in 10.0 miles WSW 2.3 mph - 0.00 in   Overcast
4:28 PM 26.6°F 26.6°F 100% 30.05 in 10.0 miles WSW 5.8 mph - N/A   Overcast
4:43 PM 26.6°F 26.6°F 100% 30.05 in 10.0 miles WSW 6.9 mph - N/A   Overcast
4:58 PM 26.6°F 26.6°F 100% 30.15 in 10.0 miles WSW 8.1 mph - 0.00 in   Overcast
5:04 PM 26.6°F 26.6°F 100% 30.05 in 10.0 miles WSW 8.1 mph - N/A   Overcast
5:05 PM 26.6°F 26.6°F 100% 30.06 in 10.0 miles WSW 8.1 mph - N/A   Overcast
5:14 PM 26.6°F 26.6°F 100% 30.06 in 10.0 miles WSW 8.1 mph - N/A   Overcast
5:45 PM 26.6°F 26.6°F 100% 30.05 in 10.0 miles SW 4.6 mph - N/A   Overcast
5:50 PM 26.6°F 26.6°F 100% 30.05 in 10.0 miles SW 4.6 mph - N/A   Overcast
5:58 PM 27.1°F 27.1°F 100% 30.14 in 10.0 miles SW 4.6 mph - 0.00 in   Overcast
6:08 PM 26.6°F 26.6°F 100% 30.05 in 10.0 miles WSW 3.5 mph - N/A   Overcast
6:18 PM 26.6°F 26.6°F 100% 30.05 in 10.0 miles WSW 4.6 mph - N/A   Overcast
6:48 PM 26.6°F 26.6°F 100% 30.06 in 10.0 miles SSW 2.3 mph - N/A   Overcast
6:58 PM 27.5°F 27.5°F 100% 30.15 in 10.0 miles SW 3.5 mph - N/A   Overcast
7:16 PM 28.4°F 28.4°F 100% 30.06 in 10.0 miles SSW 4.6 mph - N/A   Overcast
7:31 PM 28.4°F 28.4°F 100% 30.06 in 10.0 miles SW 5.8 mph - N/A   Overcast
7:58 PM 27.7°F 27.7°F 100% 30.16 in 10.0 miles WSW 5.8 mph - 0.00 in Snow Light Snow
8:17 PM 28.4°F 28.4°F 100% 30.07 in 6.0 miles WSW 5.8 mph - N/A   Overcast
8:25 PM 28.4°F 28.4°F 100% 30.07 in 7.0 miles SW 5.8 mph - N/A   Overcast
8:32 PM 28.4°F 28.4°F 100% 30.07 in 8.0 miles WSW 4.6 mph - N/A   Overcast
8:58 PM 27.5°F 27.5°F 100% 30.16 in 6.0 miles SW 4.6 mph - 0.00 in   Overcast
9:00 PM 26.6°F 26.6°F 100% 30.07 in 5.0 miles WSW 4.6 mph - N/A   Overcast
9:15 PM 26.6°F 26.6°F 100% 30.07 in 3.0 miles SW 4.6 mph - N/A   Overcast
9:25 PM 26.6°F 26.6°F 100% 30.07 in 3.0 miles SW 4.6 mph - N/A   Overcast
9:55 PM 26.6°F 26.6°F 100% 30.08 in 3.0 miles West 2.3 mph - N/A   Overcast
9:56 PM 26.6°F 26.6°F 100% 30.08 in 3.0 miles West 3.5 mph - N/A Rain Light Freezing Rain
9:59 PM 26.6°F 26.6°F 100% 30.17 in 3.0 miles West 3.5 mph - 0.00 in Rain Light Freezing Rain
10:04 PM 26.6°F 26.6°F 100% 30.08 in 3.0 miles West 3.5 mph - N/A Rain Light Freezing Rain
10:08 PM 26.6°F 26.6°F 100% 30.08 in 3.0 miles West 3.5 mph - N/A Snow Light Snow
10:23 PM 26.6°F 26.6°F 100% 30.09 in 4.0 miles Calm Calm - N/A Snow Light Snow
10:31 PM 26.6°F 26.6°F 100% 30.09 in 5.0 miles WNW 3.5 mph - N/A   Overcast
10:32 PM 26.6°F 26.6°F 100% 30.09 in 5.0 miles WNW 3.5 mph - N/A   Light Freezing Drizzle
10:34 PM 26.6°F 26.6°F 100% 30.09 in 5.0 miles West 3.5 mph - N/A Snow Light Snow
10:44 PM 26.6°F 26.6°F 100% 30.09 in 5.0 miles WNW 2.3 mph - N/A   Overcast
10:45 PM 26.6°F 26.6°F 100% 30.09 in 5.0 miles WNW 2.3 mph - N/A   Light Freezing Drizzle
10:50 PM 26.6°F 26.6°F 100% 30.09 in 5.0 miles WNW 2.3 mph - N/A   Light Freezing Drizzle
10:58 PM 27.3°F 27.3°F 100% 30.17 in 5.0 miles West 2.3 mph - 0.00 in   Light Freezing Drizzle
11:08 PM 26.6°F 26.6°F 100% 30.08 in 6.0 miles WNW 2.3 mph - N/A   Light Freezing Drizzle
11:14 PM 26.6°F 26.6°F 100% 30.09 in 6.0 miles West 1.2 mph - N/A   Overcast
11:39 PM 26.6°F 26.6°F 100% 30.09 in 3.0 miles West 2.3 mph - N/A   Overcast
11:49 PM 26.6°F 26.6°F 100% 30.09 in 2.5 miles West 3.5 mph - N/A   Overcast
11:50 PM 26.6°F 26.6°F 100% 30.09 in 2.5 miles West 3.5 mph - N/A   Overcast
11:58 PM 27.3°F 27.3°F 100% 30.18 in 2.5 miles WSW 4.6 mph - 0.00 in   Overcast
Moon Phase
Dec. 27 Dec. 28 Jan. 04 Jan. 11 Jan. 18
Sunrise:07:38 AM (PST) Moon Rise:03:55 PM (PST)12/27
Sunset:04:05 PM (PST) Moon Set:06:50 AM (PST)12/27

Copyright © 2014 The Weather Underground, Inc.